,,Stat5,,Stat1,,Stat2,,Stat3,,Stat4,,Wind1,,Wind1,
time,status,PA1M_AVG,status,PR1M_SUM,status,RH1M_AVG,status,SR1M_AVG,status,TA1M_AVG,status,W1dAve1m,status,W1sAve1m,
2002-11-24, 00:00:00,VALID,919.027,VALID,0,VALID,98.6905,VALID,-0.0169808,VALID,19.0633,VALID,95,VALID,1.03906,
2002-11-24, 00:01:01,VALID,919.023,VALID,0,VALID,98.674,VALID,-0.0169808,VALID,19.0601,VALID,99,VALID,0.831814,
2002-11-24, 00:02:00,VALID,919.001,VALID,0,VALID,98.6841,VALID,-0.0169808,VALID,19.0509,VALID,109,VALID,0.973248,
2002-11-24, 00:03:01,VALID,918.98,VALID,0,VALID,98.721,VALID,-0.0169808,VALID,19.0469,VALID,120,VALID,0.892525,
2002-11-24, 00:04:01,VALID,918.978,VALID,0,VALID,98.7579,VALID,-0.0679233,VALID,19.0536,VALID,119,VALID,0.883732,
2002-11-24, 00:05:00,VALID,918.949,VALID,0,VALID,98.777,VALID,-0.0339617,VALID,19.0601,VALID,117,VALID,0.950047,
2002-11-24, 00:06:00,VALID,918.935,VALID,0,VALID,98.7986,VALID,-0.0169808,VALID,19.0735,VALID,122,VALID,0.625633,
2002-11-24, 00:07:01,VALID,918.92,VALID,0,VALID,98.8227,VALID,-0.0339617,VALID,19.0829,VALID,125,VALID,1.02091,
2002-11-24, 00:08:01,VALID,918.89,VALID,0,VALID,98.8113,VALID,-0.0509425,VALID,19.0958,VALID,131,VALID,0.824574,
2002-11-24, 00:09:00,VALID,918.864,VALID,0,VALID,98.7833,VALID,-0.0339617,VALID,19.0924,VALID,131,VALID,0.696181,
2002-11-24, 00:10:00,VALID,918.828,VALID,0,VALID,98.763,VALID,0,VALID,19.1021,VALID,121,VALID,0.614286,
2002-11-24, 00:11:01,VALID,918.802,VALID,0,VALID,98.7554,VALID,0,VALID,19.1152,VALID,132,VALID,0.826468,
2002-11-24, 00:12:01,VALID,918.726,VALID,0,VALID,98.7426,VALID,-0.0509425,VALID,19.115,VALID,124,VALID,0.905617,
2002-11-24, 00:13:01,VALID,918.726,VALID,0,VALID,98.7515,VALID,-0.0169808,VALID,19.1083,VALID,129,VALID,0.95818,
2002-11-24, 00:14:01,VALID,918.684,VALID,0,VALID,98.7325,VALID,-0.0339617,VALID,19.1152,VALID,148,VALID,1.14867,
2002-11-24, 00:15:00,VALID,918.659,VALID,0,VALID,98.7426,VALID,-0.0169808,VALID,19.1021,VALID,138,VALID,1.36155,
2002-11-24, 00:16:00,VALID,918.654,VALID,0,VALID,98.7706,VALID,-0.0169808,VALID,19.0921,VALID,145,VALID,1.45893,
2002-11-24, 00:17:00,VALID,918.627,VALID,0,VALID,98.7884,VALID,0,VALID,19.0961,VALID,135,VALID,1.2687,
2002-11-24, 00:18:00,VALID,918.625,VALID,0,VALID,98.8113,VALID,-0.0339617,VALID,19.0926,VALID,133,VALID,1.44405,
2002-11-24, 00:19:01,VALID,918.583,VALID,0,VALID,98.8062,VALID,-0.0169808,VALID,19.0767,VALID,134,VALID,1.30078,
2002-11-24, 00:20:01,VALID,918.578,VALID,0,VALID,98.8202,VALID,0.0169808,VALID,19.0598,VALID,121,VALID,1.01373,
2002-11-24, 00:21:01,VALID,918.555,VALID,0,VALID,98.8444,VALID,-0.0169808,VALID,19.0434,VALID,108,VALID,0.690972,
2002-11-24, 00:22:01,VALID,918.526,VALID,0,VALID,98.8838,VALID,-0.0339617,VALID,19.0467,VALID,116,VALID,1.08527,
2002-11-24, 00:23:01,VALID,918.499,VALID,0,VALID,98.9194,VALID,0,VALID,19.0402,VALID,123,VALID,0.740057,
2002-11-24, 00:24:00,VALID,918.467,VALID,0,VALID,98.913,VALID,-0.0339617,VALID,19.0409,VALID,136,VALID,0.723184,
2002-11-24, 00:25:01,VALID,918.43,VALID,0,VALID,98.9397,VALID,0,VALID,19.0375,VALID,133,VALID,1.14683,
2002-11-24, 00:26:01,VALID,918.402,VALID,0,VALID,98.9614,VALID,-0.0169808,VALID,19.0444,VALID,115,VALID,0.745265,
2002-11-24, 00:27:01,VALID,918.369,VALID,0,VALID,98.9677,VALID,0,VALID,19.0271,VALID,118,VALID,0.836372,
2002-11-24, 00:28:01,VALID,918.338,VALID,0,VALID,98.9766,VALID,0,VALID,19.0404,VALID,118,VALID,0.648884,
2002-11-24, 00:29:01,VALID,918.323,VALID,0,VALID,98.9499,VALID,-0.0679233,VALID,19.0409,VALID,125,VALID,1.10772,
2002-11-24, 00:30:01,VALID,918.323,VALID,0,VALID,98.9372,VALID,-0.0509425,VALID,19.0573,VALID,109,VALID,0.712204,
2002-11-24, 00:31:01,VALID,918.303,VALID,0,VALID,98.9346,VALID,-0.0679233,VALID,19.0409,VALID,122,VALID,1.00735,
2002-11-24, 00:32:01,VALID,918.304,VALID,0,VALID,98.8876,VALID,-0.0169808,VALID,19.0541,VALID,124,VALID,0.954072,
2002-11-24, 00:33:01,VALID,918.291,VALID,0,VALID,98.8291,VALID,-0.0339617,VALID,19.0504,VALID,138,VALID,0.73112,
2002-11-24, 00:34:01,VALID,918.275,VALID,0,VALID,98.749,VALID,0,VALID,19.0467,VALID,136,VALID,1.02634,
2002-11-24, 00:35:01,VALID,918.268,VALID,0,VALID,98.674,VALID,-0.0339617,VALID,19.0564,VALID,146,VALID,0.722538,
2002-11-24, 00:36:01,VALID,918.241,VALID,0,VALID,98.5811,VALID,0,VALID,19.0663,VALID,152,VALID,0.866976,
2002-11-24, 00:37:01,VALID,918.237,VALID,0,VALID,98.4642,VALID,0,VALID,19.0832,VALID,149,VALID,1.11144,
2002-11-24, 00:38:01,VALID,918.212,VALID,0,VALID,98.3484,VALID,-0.0339617,VALID,19.0795,VALID,157,VALID,0.862689,
2002-11-24, 00:39:01,VALID,918.203,VALID,0,VALID,98.2518,VALID,-0.0169808,VALID,19.0891,VALID,161,VALID,0.930556,
2002-11-24, 00:40:01,VALID,918.178,VALID,0,VALID,98.192,VALID,-0.0509425,VALID,19.0698,VALID,161,VALID,0.65067,
2002-11-24, 00:41:01,VALID,918.161,VALID,0,VALID,98.1513,VALID,-0.0169808,VALID,19.0799,VALID,158,VALID,0.995975,
2002-11-24, 00:42:01,VALID,918.151,VALID,0,VALID,98.1539,VALID,-0.0169808,VALID,19.0635,VALID,141,VALID,0.850296,
2002-11-24, 00:43:01,VALID,918.142,VALID,0,VALID,98.117,VALID,0,VALID,19.0571,VALID,111,VALID,0.494026,
2002-11-24, 00:44:00,VALID,918.157,VALID,0,VALID,98.1196,VALID,0,VALID,19.0476,VALID,143,VALID,0.816761,
2002-11-24, 00:45:00,VALID,918.175,VALID,0,VALID,98.1081,VALID,-0.0339617,VALID,19.0315,VALID,152,VALID,0.837023,
2002-11-24, 00:46:00,VALID,918.188,VALID,0,VALID,98.1501,VALID,-0.0509425,VALID,19.0416,VALID,163,VALID,0.97433,
2002-11-24, 00:47:00,VALID,918.186,VALID,0,VALID,98.206,VALID,-0.0509425,VALID,19.0245,VALID,146,VALID,0.979877,
2002-11-24, 00:48:00,VALID,918.173,VALID,0,VALID,98.1882,VALID,-0.0509425,VALID,19.0446,VALID,138,VALID,0.701225,
2002-11-24, 00:49:00,VALID,918.154,VALID,0,VALID,98.1526,VALID,-0.0849042,VALID,19.0449,VALID,143,VALID,0.861903,
2002-11-24, 00:50:00,VALID,918.145,VALID,0,VALID,98.1374,VALID,0,VALID,19.0377,VALID,143,VALID,0.894176,
2002-11-24, 00:51:00,VALID,918.117,VALID,0,VALID,98.1348,VALID,0.0679233,VALID,19.0363,VALID,144,VALID,1.00977,
2002-11-24, 00:52:00,VALID,918.096,VALID,0,VALID,98.1221,VALID,0.101885,VALID,19.0492,VALID,153,VALID,1.09799,
2002-11-24, 00:53:00,VALID,918.076,VALID,0,VALID,98.0598,VALID,0.101885,VALID,19.0653,VALID,152,VALID,0.52036,
2002-11-24, 00:54:00,VALID,918.056,VALID,0,VALID,98.014,VALID,0.101885,VALID,19.0713,VALID,148,VALID,0.478041,
2002-11-24, 00:55:00,VALID,918.037,VALID,0,VALID,97.911,VALID,0.0509425,VALID,19.0854,VALID,134,VALID,0.463006,
2002-11-24, 00:56:00,VALID,918.025,VALID,0,VALID,97.8436,VALID,0.0679233,VALID,19.0753,VALID,154,VALID,0.378551,
2002-11-24, 00:57:00,VALID,918.029,VALID,0,VALID,97.7902,VALID,0.0849042,VALID,19.0658,VALID,143,VALID,0.748047,
2002-11-24, 00:58:00,VALID,918.013,VALID,0,VALID,97.8093,VALID,0.101885,VALID,19.0425,VALID,162,VALID,0.797768,
2002-11-24, 00:59:00,VALID,918.013,VALID,0,VALID,97.8512,VALID,0.0849042,VALID,19.0497,VALID,188,VALID,0.606297,
2002-11-24, 01:00:00,VALID,918,VALID,0,VALID,97.9186,VALID,0.0849042,VALID,19.0499,VALID,175,VALID,0.559544,
2002-11-24, 01:01:00,VALID,917.994,VALID,0,VALID,97.9314,VALID,0.0849042,VALID,19.0626,VALID,177,VALID,0.92693,
2002-11-24, 01:02:00,VALID,917.979,VALID,0,VALID,97.9046,VALID,0.101885,VALID,19.0623,VALID,180,VALID,0.797585,
2002-11-24, 01:03:00,VALID,917.983,VALID,0,VALID,97.8779,VALID,0.0849042,VALID,19.0492,VALID,173,VALID,0.859809,
2002-11-24, 01:04:00,VALID,917.967,VALID,0,VALID,97.8716,VALID,0.101885,VALID,19.0363,VALID,175,VALID,0.735714,
2002-11-24, 01:05:00,VALID,917.948,VALID,0,VALID,97.883,VALID,0.0679233,VALID,19.0434,VALID,173,VALID,0.470881,
2002-11-24, 01:06:00,VALID,917.944,VALID,0,VALID,97.8932,VALID,0,VALID,19.0347,VALID,167,VALID,0.402872,
2002-11-24, 01:07:00,VALID,917.913,VALID,0,VALID,97.9822,VALID,0.0169808,VALID,19.0375,VALID,165,VALID,0.748851,
2002-11-24, 01:08:00,VALID,917.921,VALID,0,VALID,97.972,VALID,0,VALID,19.0541,VALID,170,VALID,1.0973,
2002-11-24, 01:09:00,VALID,917.92,VALID,0,VALID,97.9492,VALID,0,VALID,19.0573,VALID,159,VALID,0.911024,
2002-11-24, 01:10:00,VALID,917.93,VALID,0,VALID,97.9085,VALID,0.0169808,VALID,19.0536,VALID,166,VALID,0.575893,
2002-11-24, 01:11:00,VALID,917.95,VALID,0,VALID,97.9377,VALID,0,VALID,19.0635,VALID,156,VALID,0.662405,
2002-11-24, 01:12:00,VALID,917.96,VALID,0,VALID,97.9377,VALID,0,VALID,19.0859,VALID,174,VALID,1.06609,
2002-11-24, 01:13:00,VALID,917.973,VALID,0,VALID,97.8729,VALID,-0.0169808,VALID,19.1053,VALID,140,VALID,0.173024,
2002-11-24, 01:14:00,VALID,917.991,VALID,0,VALID,97.8233,VALID,0,VALID,19.1182,VALID,147,VALID,0.100852,
2002-11-24, 01:15:00,VALID,917.982,VALID,0,VALID,97.8067,VALID,0,VALID,19.1416,VALID,147,VALID,0,
2002-11-24, 01:16:00,VALID,917.979,VALID,0,VALID,97.7622,VALID,0,VALID,19.1408,VALID,147,VALID,0,
2002-11-24, 01:17:00,VALID,917.963,VALID,0,VALID,97.7673,VALID,0.0169808,VALID,19.1508,VALID,147,VALID,0,
2002-11-24, 01:18:00,VALID,917.938,VALID,0,VALID,97.6948,VALID,0.0169808,VALID,19.1307,VALID,147,VALID,0,
2002-11-24, 01:19:00,VALID,917.91,VALID,0,VALID,97.658,VALID,0.0509425,VALID,19.1177,VALID,160,VALID,0.215533,
2002-11-24, 01:20:00,VALID,917.888,VALID,0,VALID,97.6872,VALID,-0.0169808,VALID,19.1092,VALID,159,VALID,0.490057,
2002-11-24, 01:21:00,VALID,917.871,VALID,0,VALID,97.6885,VALID,-0.101885,VALID,19.1102,VALID,156,VALID,0.484592,
2002-11-24, 01:22:00,VALID,917.859,VALID,0,VALID,97.7101,VALID,-0.101885,VALID,19.1003,VALID,174,VALID,0.884375,
2002-11-24, 01:23:00,VALID,917.849,VALID,0,VALID,97.7686,VALID,-0.101885,VALID,19.1033,VALID,147,VALID,0.464252,
2002-11-24, 01:24:00,VALID,917.87,VALID,0,VALID,97.7737,VALID,-0.0679233,VALID,19.0998,VALID,148,VALID,0.903294,
2002-11-24, 01:25:00,VALID,917.87,VALID,0,VALID,97.7368,VALID,-0.0849042,VALID,19.1,VALID,131,VALID,0.719669,
2002-11-24, 01:26:00,VALID,917.877,VALID,0,VALID,97.7533,VALID,-0.101885,VALID,19.0804,VALID,121,VALID,0.540956,
2002-11-24, 01:27:00,VALID,917.89,VALID,0,VALID,97.7457,VALID,-0.101885,VALID,19.0647,VALID,126,VALID,0.688151,
2002-11-24, 01:28:00,VALID,917.896,VALID,0,VALID,97.8614,VALID,-0.101885,VALID,19.0618,VALID,153,VALID,0.355134,
2002-11-24, 01:29:00,VALID,917.908,VALID,0,VALID,97.9136,VALID,-0.0679233,VALID,19.0454,VALID,162,VALID,0.26018,
2002-11-24, 01:30:00,VALID,917.915,VALID,0,VALID,97.9746,VALID,-0.0679233,VALID,19.0454,VALID,162,VALID,0,
2002-11-24, 01:31:00,VALID,917.901,VALID,0,VALID,97.9873,VALID,-0.0849042,VALID,19.029,VALID,162,VALID,0,
2002-11-24, 01:32:00,VALID,917.888,VALID,0,VALID,98.0013,VALID,-0.0509425,VALID,19.0096,VALID,107,VALID,0.160511,
2002-11-24, 01:33:00,VALID,917.868,VALID,0,VALID,98.0407,VALID,-0.0849042,VALID,18.9939,VALID,77,VALID,0.0570747,
2002-11-24, 01:34:00,VALID,917.84,VALID,0,VALID,98.1132,VALID,-0.0849042,VALID,18.987,VALID,69,VALID,0.000669643,
2002-11-24, 01:35:00,VALID,917.827,VALID,0,VALID,98.2009,VALID,-0.0679233,VALID,18.9904,VALID,160,VALID,0.350616,
2002-11-24, 01:36:00,VALID,917.804,VALID,0,VALID,98.2531,VALID,0.0169808,VALID,18.9992,VALID,152,VALID,0.475718,
2002-11-24, 01:37:00,VALID,917.797,VALID,0,VALID,98.323,VALID,0.0169808,VALID,18.9922,VALID,162,VALID,0.366728,
2002-11-24, 01:38:00,VALID,917.782,VALID,0,VALID,98.3548,VALID,0.0169808,VALID,18.9957,VALID,151,VALID,0.507813,
2002-11-24, 01:39:00,VALID,917.775,VALID,0,VALID,98.3891,VALID,0,VALID,18.9957,VALID,126,VALID,0.507595,
2002-11-24, 01:40:00,VALID,917.752,VALID,0,VALID,98.4247,VALID,-0.0169808,VALID,18.9962,VALID,143,VALID,0.382813,
2002-11-24, 01:41:00,VALID,917.74,VALID,0,VALID,98.3929,VALID,0,VALID,18.9798,VALID,125,VALID,0.337831,
2002-11-24, 01:42:00,VALID,917.726,VALID,0,VALID,98.3675,VALID,0,VALID,18.9569,VALID,121,VALID,0.177787,
2002-11-24, 01:43:00,VALID,917.727,VALID,0,VALID,98.3103,VALID,-0.0169808,VALID,18.935,VALID,106,VALID,0.505974,
2002-11-24, 01:44:00,VALID,917.72,VALID,0,VALID,98.4095,VALID,-0.0169808,VALID,18.9085,VALID,111,VALID,0.959754,
2002-11-24, 01:45:00,VALID,917.715,VALID,0,VALID,98.44,VALID,0,VALID,18.8856,VALID,100,VALID,0.67296,
2002-11-24, 01:46:00,VALID,917.686,VALID,0,VALID,98.4222,VALID,0,VALID,18.8896,VALID,109,VALID,0.790848,
2002-11-24, 01:47:00,VALID,917.67,VALID,0,VALID,98.529,VALID,0,VALID,18.8797,VALID,108,VALID,0.882576,
2002-11-24, 01:48:00,VALID,917.667,VALID,0,VALID,98.501,VALID,0,VALID,18.8767,VALID,68,VALID,0.582559,
2002-11-24, 01:49:00,VALID,917.639,VALID,0,VALID,98.5227,VALID,0,VALID,18.8541,VALID,91,VALID,0.910156,
2002-11-24, 01:50:00,VALID,917.611,VALID,0,VALID,98.6193,VALID,0.0169808,VALID,18.8603,VALID,76,VALID,0.893229,
2002-11-24, 01:51:00,VALID,917.575,VALID,0,VALID,98.6307,VALID,0.0849042,VALID,18.8718,VALID,76,VALID,0.715278,
2002-11-24, 01:52:00,VALID,917.557,VALID,0,VALID,98.7096,VALID,0.0849042,VALID,18.8852,VALID,93,VALID,0.958705,
2002-11-24, 01:53:00,VALID,917.531,VALID,0,VALID,98.6638,VALID,0.0339617,VALID,18.8852,VALID,93,VALID,0.744555,
2002-11-24, 01:54:00,VALID,917.526,VALID,0,VALID,98.6981,VALID,0.0849042,VALID,18.8847,VALID,90,VALID,0.809966,
2002-11-24, 01:55:00,VALID,917.528,VALID,0,VALID,98.6752,VALID,0.101885,VALID,18.8879,VALID,87,VALID,0.796415,
2002-11-24, 01:56:00,VALID,917.525,VALID,0,VALID,98.6918,VALID,0.101885,VALID,18.8976,VALID,100,VALID,0.852036,
2002-11-24, 01:57:00,VALID,917.531,VALID,0,VALID,98.6536,VALID,0.101885,VALID,18.8976,VALID,71,VALID,0.696615,
2002-11-24, 01:58:00,VALID,917.522,VALID,0,VALID,98.6587,VALID,0.101885,VALID,18.8879,VALID,87,VALID,0.924554,
2002-11-24, 01:59:00,VALID,917.507,VALID,0,VALID,98.6142,VALID,0.101885,VALID,18.8748,VALID,86,VALID,0.883286,
2002-11-24, 02:00:00,VALID,917.463,VALID,0,VALID,98.5939,VALID,0.101885,VALID,18.8718,VALID,74,VALID,0.85663,
2002-11-24, 02:01:00,VALID,917.427,VALID,0,VALID,98.5989,VALID,0.0849042,VALID,18.8494,VALID,88,VALID,0.785616,
2002-11-24, 02:02:00,VALID,917.376,VALID,0,VALID,98.6791,VALID,0.101885,VALID,18.8425,VALID,106,VALID,1.03314,
2002-11-24, 02:03:00,VALID,917.324,VALID,0,VALID,98.7426,VALID,0.0849042,VALID,18.8425,VALID,114,VALID,1.06489,
2002-11-24, 02:04:00,VALID,917.285,VALID,0,VALID,98.7465,VALID,0.101885,VALID,18.8586,VALID,125,VALID,1.41942,
2002-11-24, 02:05:00,VALID,917.246,VALID,0,VALID,98.7808,VALID,0.0679233,VALID,18.8593,VALID,118,VALID,1.36813,
2002-11-24, 02:06:00,VALID,917.221,VALID,0,VALID,98.7643,VALID,0,VALID,18.8573,VALID,107,VALID,1.34903,
2002-11-24, 02:07:00,VALID,917.216,VALID,0,VALID,98.7795,VALID,-0.0169808,VALID,18.8578,VALID,108,VALID,1.33019,
2002-11-24, 02:08:00,VALID,917.216,VALID,0,VALID,98.7897,VALID,0,VALID,18.8471,VALID,104,VALID,1.11695,
2002-11-24, 02:09:00,VALID,917.214,VALID,0,VALID,98.8749,VALID,-0.0169808,VALID,18.8506,VALID,99,VALID,1.36502,
2002-11-24, 02:10:00,VALID,917.208,VALID,0,VALID,98.8622,VALID,-0.0339617,VALID,18.867,VALID,87,VALID,1.24152,
2002-11-24, 02:11:00,VALID,917.215,VALID,0,VALID,98.8011,VALID,0,VALID,18.8637,VALID,61,VALID,0.839962,
2002-11-24, 02:12:00,VALID,917.216,VALID,0,VALID,98.7808,VALID,0,VALID,18.8374,VALID,85,VALID,1.09227,
2002-11-24, 02:13:00,VALID,917.229,VALID,0,VALID,98.8406,VALID,-0.0169808,VALID,18.8439,VALID,81,VALID,1.24058,
2002-11-24, 02:14:00,VALID,917.217,VALID,0,VALID,98.791,VALID,0,VALID,18.8508,VALID,79,VALID,0.962358,
2002-11-24, 02:15:00,VALID,917.215,VALID,0,VALID,98.8011,VALID,0.0169808,VALID,18.8273,VALID,92,VALID,0.881944,
2002-11-24, 02:16:00,VALID,917.183,VALID,0,VALID,98.7871,VALID,0,VALID,18.8379,VALID,113,VALID,0.764732,
2002-11-24, 02:17:00,VALID,917.16,VALID,0,VALID,98.8189,VALID,-0.0169808,VALID,18.824,VALID,110,VALID,0.368371,
2002-11-24, 02:18:00,VALID,917.137,VALID,0,VALID,98.8215,VALID,-0.0169808,VALID,18.8247,VALID,110,VALID,0.00380068,
2002-11-24, 02:19:00,VALID,917.125,VALID,0,VALID,98.7986,VALID,-0.0339617,VALID,18.8222,VALID,110,VALID,0.025046,
2002-11-24, 02:20:00,VALID,917.097,VALID,0,VALID,98.8151,VALID,-0.0169808,VALID,18.8121,VALID,110,VALID,0.0549242,
2002-11-24, 02:21:00,VALID,917.081,VALID,0,VALID,98.8227,VALID,-0.0169808,VALID,18.8061,VALID,110,VALID,0.0896267,
2002-11-24, 02:22:00,VALID,917.072,VALID,0,VALID,98.8227,VALID,-0.0169808,VALID,18.7996,VALID,110,VALID,0.127455,
2002-11-24, 02:23:00,VALID,917.058,VALID,0,VALID,98.8507,VALID,-0.0169808,VALID,18.7892,VALID,109,VALID,0.0215436,
2002-11-24, 02:24:00,VALID,917.033,VALID,0,VALID,98.8711,VALID,-0.0339617,VALID,18.7991,VALID,109,VALID,0,
2002-11-24, 02:25:00,VALID,917.018,VALID,0,VALID,98.8482,VALID,-0.0339617,VALID,18.7867,VALID,108,VALID,0,
2002-11-24, 02:26:00,VALID,917.018,VALID,0,VALID,98.6981,VALID,-0.0339617,VALID,18.7509,VALID,106,VALID,0,
2002-11-24, 02:27:00,VALID,917.021,VALID,0,VALID,98.6651,VALID,0,VALID,18.6992,VALID,111,VALID,0.470052,
2002-11-24, 02:28:00,VALID,917.021,VALID,0,VALID,98.8393,VALID,-0.0339617,VALID,18.693,VALID,117,VALID,0.67567,
2002-11-24, 02:29:00,VALID,917.025,VALID,0,VALID,98.9677,VALID,0,VALID,18.7182,VALID,118,VALID,0.702888,
2002-11-24, 02:30:00,VALID,917.01,VALID,0,VALID,98.9626,VALID,0,VALID,18.7315,VALID,124,VALID,0.596073,
2002-11-24, 02:31:00,VALID,916.999,VALID,0,VALID,98.9957,VALID,0,VALID,18.7507,VALID,120,VALID,0.861903,
2002-11-24, 02:32:00,VALID,916.975,VALID,0,VALID,98.9893,VALID,-0.0339617,VALID,18.7606,VALID,117,VALID,0.895597,
2002-11-24, 02:33:00,VALID,916.967,VALID,0,VALID,98.9436,VALID,-0.0169808,VALID,18.7539,VALID,117,VALID,0.839627,
2002-11-24, 02:34:00,VALID,916.96,VALID,0,VALID,98.9525,VALID,-0.0169808,VALID,18.7544,VALID,106,VALID,0.695982,
2002-11-24, 02:35:00,VALID,916.951,VALID,0,VALID,98.9474,VALID,-0.0169808,VALID,18.7475,VALID,93,VALID,0.787879,
2002-11-24, 02:36:00,VALID,916.958,VALID,0,VALID,98.941,VALID,-0.0339617,VALID,18.7482,VALID,82,VALID,0.734164,
2002-11-24, 02:37:00,VALID,916.963,VALID,0,VALID,98.9614,VALID,-0.0509425,VALID,18.7475,VALID,86,VALID,0.901195,
2002-11-24, 02:38:00,VALID,916.969,VALID,0,VALID,98.9423,VALID,0,VALID,18.7477,VALID,104,VALID,0.791903,
2002-11-24, 02:39:00,VALID,916.978,VALID,0,VALID,98.9436,VALID,-0.0339617,VALID,18.741,VALID,112,VALID,1.08095,
2002-11-24, 02:40:00,VALID,916.963,VALID,0,VALID,98.9283,VALID,-0.0169808,VALID,18.7385,VALID,129,VALID,0.544866,
2002-11-24, 02:41:00,VALID,916.97,VALID,0,VALID,98.9537,VALID,0,VALID,18.7251,VALID,134,VALID,0.671402,
2002-11-24, 02:42:00,VALID,916.95,VALID,0,VALID,98.9652,VALID,0,VALID,18.7246,VALID,112,VALID,0.407306,
2002-11-24, 02:43:00,VALID,916.939,VALID,0,VALID,98.9792,VALID,0,VALID,18.7184,VALID,89,VALID,0.878447,
2002-11-24, 02:44:00,VALID,916.932,VALID,0,VALID,98.9779,VALID,-0.0169808,VALID,18.7253,VALID,106,VALID,0.828125,
2002-11-24, 02:45:00,VALID,916.924,VALID,0,VALID,98.9346,VALID,-0.0169808,VALID,18.699,VALID,97,VALID,0.849609,
2002-11-24, 02:46:00,VALID,916.924,VALID,0,VALID,98.9652,VALID,-0.0339617,VALID,18.7124,VALID,108,VALID,1.04531,
2002-11-24, 02:47:00,VALID,916.929,VALID,0,VALID,98.9804,VALID,0,VALID,18.7027,VALID,137,VALID,0.814631,
2002-11-24, 02:48:00,VALID,916.942,VALID,0,VALID,99.0135,VALID,-0.0339617,VALID,18.6958,VALID,141,VALID,0.427787,
2002-11-24, 02:49:00,VALID,916.948,VALID,0,VALID,99.0364,VALID,0,VALID,18.6926,VALID,147,VALID,0.627528,
2002-11-24, 02:50:00,VALID,916.945,VALID,0,VALID,99.0555,VALID,0.0169808,VALID,18.7025,VALID,127,VALID,0.665246,
2002-11-24, 02:51:00,VALID,916.952,VALID,0.2,VALID,99.0682,VALID,0.0339617,VALID,18.7117,VALID,122,VALID,0.708116,
2002-11-24, 02:52:00,VALID,916.961,VALID,0,VALID,99.0682,VALID,0.0339617,VALID,18.702,VALID,95,VALID,0.693527,
2002-11-24, 02:53:00,VALID,916.952,VALID,0,VALID,99.0326,VALID,0.0509425,VALID,18.6891,VALID,101,VALID,0.781013,
2002-11-24, 02:54:00,VALID,916.937,VALID,0,VALID,99.0682,VALID,0.0169808,VALID,18.6665,VALID,112,VALID,1.01921,
2002-11-24, 02:55:00,VALID,916.948,VALID,0,VALID,99.0961,VALID,0.0169808,VALID,18.6598,VALID,104,VALID,1.04779,
2002-11-24, 02:56:00,VALID,916.931,VALID,0,VALID,99.105,VALID,0.0509425,VALID,18.6503,VALID,111,VALID,0.862926,
2002-11-24, 02:57:00,VALID,916.932,VALID,0,VALID,99.1012,VALID,0.0509425,VALID,18.6374,VALID,97,VALID,0.866102,
2002-11-24, 02:58:00,VALID,916.929,VALID,0,VALID,99.1775,VALID,0,VALID,18.6243,VALID,104,VALID,1.26585,
2002-11-24, 02:59:00,VALID,916.928,VALID,0,VALID,99.2233,VALID,0.0339617,VALID,18.657,VALID,107,VALID,1.30374,
2002-11-24, 03:00:00,VALID,916.934,VALID,0,VALID,99.2258,VALID,0,VALID,18.6665,VALID,89,VALID,1.05152,
2002-11-24, 03:01:00,VALID,916.931,VALID,0,VALID,99.1877,VALID,0.0169808,VALID,18.6536,VALID,118,VALID,0.658318,
2002-11-24, 03:02:00,VALID,916.948,VALID,0,VALID,99.2042,VALID,0.0339617,VALID,18.6603,VALID,97,VALID,0.786222,
2002-11-24, 03:03:00,VALID,916.968,VALID,0,VALID,99.175,VALID,0.0679233,VALID,18.6566,VALID,117,VALID,0.868707,
2002-11-24, 03:04:00,VALID,916.976,VALID,0,VALID,99.2284,VALID,0,VALID,18.6563,VALID,119,VALID,1.25067,
2002-11-24, 03:05:00,VALID,916.988,VALID,0,VALID,99.2195,VALID,0.0169808,VALID,18.6824,VALID,106,VALID,1.00758,
2002-11-24, 03:06:00,VALID,916.996,VALID,0,VALID,99.1457,VALID,-0.0509425,VALID,18.6937,VALID,103,VALID,0.762458,
2002-11-24, 03:07:00,VALID,917.006,VALID,0,VALID,99.1648,VALID,-0.101885,VALID,18.6898,VALID,106,VALID,1.00391,
2002-11-24, 03:08:00,VALID,917.002,VALID,0,VALID,99.1228,VALID,-0.0339617,VALID,18.697,VALID,115,VALID,1.15862,
2002-11-24, 03:09:00,VALID,916.995,VALID,0,VALID,99.1165,VALID,-0.0509425,VALID,18.7,VALID,123,VALID,0.866319,
2002-11-24, 03:10:00,VALID,916.986,VALID,0,VALID,99.1114,VALID,-0.101885,VALID,18.6997,VALID,118,VALID,0.967634,
2002-11-24, 03:11:00,VALID,916.982,VALID,0,VALID,99.1127,VALID,-0.101885,VALID,18.7096,VALID,119,VALID,0.499053,
2002-11-24, 03:12:00,VALID,916.967,VALID,0,VALID,99.0783,VALID,-0.0849042,VALID,18.7099,VALID,128,VALID,0.863176,
2002-11-24, 03:13:00,VALID,916.951,VALID,0,VALID,99.0733,VALID,-0.0679233,VALID,18.7126,VALID,123,VALID,0.615579,
2002-11-24, 03:14:00,VALID,916.936,VALID,0,VALID,99.0707,VALID,-0.0849042,VALID,18.7032,VALID,130,VALID,0.788352,
2002-11-24, 03:15:00,VALID,916.946,VALID,0,VALID,99.0542,VALID,-0.0509425,VALID,18.7096,VALID,137,VALID,1.0842,
2002-11-24, 03:16:00,VALID,916.929,VALID,0,VALID,99.0377,VALID,-0.0679233,VALID,18.6937,VALID,136,VALID,0.840848,
2002-11-24, 03:17:00,VALID,916.937,VALID,0,VALID,99.0351,VALID,-0.0849042,VALID,18.6907,VALID,136,VALID,1.2526,
2002-11-24, 03:18:00,VALID,916.935,VALID,0,VALID,99.044,VALID,-0.0849042,VALID,18.6607,VALID,134,VALID,1.01394,
2002-11-24, 03:19:00,VALID,916.954,VALID,0,VALID,99.0834,VALID,-0.0849042,VALID,18.6677,VALID,97,VALID,0.609605,
2002-11-24, 03:20:00,VALID,916.943,VALID,0,VALID,99.1025,VALID,-0.0849042,VALID,18.6584,VALID,106,VALID,0.607718,
2002-11-24, 03:21:00,VALID,916.954,VALID,0,VALID,99.0974,VALID,-0.101885,VALID,18.6483,VALID,101,VALID,0.905165,
2002-11-24, 03:22:00,VALID,916.935,VALID,0,VALID,99.1432,VALID,-0.0849042,VALID,18.6353,VALID,132,VALID,1.15335,
2002-11-24, 03:23:00,VALID,916.927,VALID,0,VALID,99.1737,VALID,-0.101885,VALID,18.6455,VALID,123,VALID,0.775805,
2002-11-24, 03:24:00,VALID,916.897,VALID,0,VALID,99.208,VALID,-0.0849042,VALID,18.652,VALID,122,VALID,0.616132,
2002-11-24, 03:25:00,VALID,916.901,VALID,0,VALID,99.1953,VALID,-0.0509425,VALID,18.6517,VALID,126,VALID,0.90671,
2002-11-24, 03:26:00,VALID,916.912,VALID,0,VALID,99.2157,VALID,-0.0679233,VALID,18.6388,VALID,117,VALID,0.550426,
2002-11-24, 03:27:00,VALID,916.915,VALID,0,VALID,99.2513,VALID,-0.101885,VALID,18.6584,VALID,121,VALID,0.720703,
2002-11-24, 03:28:00,VALID,916.925,VALID,0,VALID,99.2602,VALID,-0.101885,VALID,18.6679,VALID,118,VALID,0.59308,
2002-11-24, 03:29:00,VALID,916.939,VALID,0,VALID,99.264,VALID,-0.0849042,VALID,18.6547,VALID,118,VALID,1.16596,
2002-11-24, 03:30:00,VALID,916.935,VALID,0,VALID,99.2691,VALID,-0.0849042,VALID,18.6709,VALID,134,VALID,1.15435,
2002-11-24, 03:31:00,VALID,916.948,VALID,0,VALID,99.2971,VALID,-0.0849042,VALID,18.6803,VALID,125,VALID,1.00138,
2002-11-24, 03:32:00,VALID,916.931,VALID,0,VALID,99.2945,VALID,-0.0679233,VALID,18.6967,VALID,123,VALID,0.708097,